This demonstration page uses our WeatherBlox Daily Observations layout. Learn more.

Left ArrowRight Arrow

39.29038, -76.61219

Hourly Observations for February 15, 2017

Temp ( °F °C ) Dew Point ( °F °C ) Humidity (%) Winds ( mph kmh ) Pressure ( in mb ) Visibility ( mi km ) Precip ( " mm )
12:54 am 00:54 undefined 38 3.3 27 -2.8 65 65 undefined N/A 29.69 1005 N/A 0.00 0.00
1:54 am 01:54 undefined 37 2.8 27 -2.8 67 67 undefined N/A 29.66 1005 N/A 0.00 0.00
2:54 am 02:54 undefined 37 2.8 28 -2.2 70 70 undefined N/A 29.64 1004 N/A 0.00 0.00
3:54 am 03:54 undefined 38 3.3 28 -2.2 68 68 undefined N/A 29.62 1003 N/A 0.00 0.00
4:54 am 04:54 undefined 36 2.2 29 -1.7 76 76 undefined N/A 29.60 1002 N/A 0.00 0.00
5:54 am 05:54 undefined 36 2.2 28 -2.2 73 73 undefined N/A 29.57 1001 N/A 0.00 0.00
6:54 am 06:54 undefined 36 2.2 28 -2.2 73 73 undefined N/A 29.55 1001 N/A 0.00 0.00
7:54 am 07:54 undefined 39 3.9 28 -2.2 65 65 undefined N/A 29.54 1000 N/A 0.00 0.00
8:54 am 08:54 undefined 39 3.9 27 -2.8 62 62 undefined N/A 29.53 1000 N/A 0.00 0.00
9:54 am 09:54 undefined 41 5 28 -2.2 60 60 undefined N/A 29.51 999 N/A 0.00 0.00
10:54 am 10:54 undefined 44 6.7 28 -2.2 53 53 undefined N/A 29.48 998 N/A 0.00 0.00
11:54 am 11:54 undefined 52 11.1 28 -2.2 40 40 undefined N/A 29.47 998 N/A 0.00 0.00
12:54 pm 12:54 undefined 51 10.6 25 -3.9 36 36 undefined N/A 29.42 996 N/A 0.00 0.00
1:54 pm 13:54 undefined 48 8.9 27 -2.8 44 44 undefined N/A 29.44 997 N/A 0.00 0.00
2:54 pm 14:54 undefined 48 8.9 19 -7.2 32 32 undefined N/A 29.45 997 N/A 0.00 0.00
3:54 pm 15:54 undefined 45 7.2 14 -10 29 29 undefined N/A 29.47 998 N/A 0.00 0.00
4:54 pm 16:54 undefined 44 6.7 16 -8.9 32 32 undefined N/A 29.50 999 N/A 0.00 0.00
5:54 pm 17:54 undefined 42 5.6 16 -8.9 35 35 undefined N/A 29.53 1000 N/A 0.00 0.00
6:54 pm 18:54 undefined 41 5 17 -8.3 38 38 undefined N/A 29.56 1001 N/A 0.00 0.00
7:54 pm 19:54 undefined 40 4.4 18 -7.8 41 41 undefined N/A 29.59 1002 N/A 0.00 0.00
8:54 pm 20:54 undefined 39 3.9 18 -7.8 43 43 undefined N/A 29.62 1003 N/A 0.00 0.00
9:54 pm 21:54 undefined 39 3.9 17 -8.3 41 41 undefined N/A 29.64 1004 N/A 0.00 0.00
10:54 pm 22:54 undefined 39 3.9 18 -7.8 43 43 undefined N/A 29.62 1003 N/A 0.00 0.00
11:54 pm 23:54 undefined 38 3.3 18 -7.8 44 44 undefined N/A 29.63 1003 N/A 0.00 0.00

Powered by AerisWeather